Zurück zum Katalog

STARLINK-36420

AktivKommunikationVLEO
NORAD 67347·PAYLOAD·🇺🇸 United States

Gestartet Jan 9, 2026 von Cape Canaveral Space Force Station

Loading…

Nächste Überflüge (nächste 24 Stunden)

TLE

AktuellSource: CelesTrak SupGP

Epoche: Sep 14, 2026, 15:16 UTC

1 67347C 26003P   26257.63659722 -.00035043  00000+0 -12697-2 0  2570
2 67347  43.0016 240.1104 0001338 266.3557 305.5545 15.27585039    17

Verfolge STARLINK-36420 in Echtzeit mit AllMySat

Download on the App Store